This demonstration page uses our WeatherBlox Daily Observations layout. Learn more.

Left ArrowRight Arrow

39.51506, -84.39828

Hourly Observations for July 14, 2015

Temp ( °F °C ) Dew Point ( °F °C ) Humidity (%) Winds ( mph kmh ) Pressure ( in mb ) Visibility ( mi km ) Precip ( " mm )
12:15 am 00:15 Cloudy with Light Rain 74 23.6 70 21.1 86 86 NNW 10 17 29.74 1007 10 16 N/A
12:35 am 00:35 Cloudy with Light Rain 74 23.6 69 20.5 83 83 N 15 24 29.77 1008 10 16 N/A
12:55 am 00:55 Partly Cloudy 74 23.4 68 20 81 81 NW 8 13 29.77 1008 10 16 N/A
1:15 am 01:15 Clear 71 21.6 65 18.6 83 83 ENE 5 7 29.74 1007 10 16 N/A
1:35 am 01:35 Clear 70 20.9 65 18.1 84 84 N N/A 29.74 1007 10 16 N/A
1:55 am 01:55 Partly Cloudy with Light Rain 69 20.8 65 18.5 87 87 ESE 8 13 29.68 1005 10 16 N/A
2:15 am 02:15 Partly Cloudy 69 20.8 65 18.5 87 87 SW 6 9 29.71 1006 10 16 N/A
2:35 am 02:35 Partly Cloudy 69 20.8 66 18.7 88 88 S 3 6 29.71 1006 10 16 N/A
2:55 am 02:55 Partly Cloudy 69 20.8 65 18.5 87 87 WSW 6 9 29.71 1006 10 16 N/A
3:15 am 03:15 Clear 69 20.8 65 18.6 87 87 SW 6 9 29.65 1004 10 16 N/A
3:35 am 03:35 Clear 69 20.8 66 18.7 88 88 SW 7 11 29.65 1004 10 16 N/A
3:55 am 03:55 Clear 71 21.4 67 19.6 90 90 SSW 5 7 29.65 1004 10 16 N/A
4:15 am 04:15 Clear 69 20.8 66 19 90 90 N N/A 29.65 1004 7 11 N/A
4:35 am 04:35 Mostly Cloudy 70 20.9 66 19.1 90 90 N N/A 29.65 1004 7 11 N/A
4:55 am 04:55 Cloudy with Mist and Fog 71 21.4 67 19.7 90 90 N N/A 29.65 1004 5 8 N/A
5:15 am 05:15 Cloudy with Mist and Fog 72 22.3 69 20.8 91 91 SSW 7 11 29.65 1004 5 8 N/A
5:35 am 05:35 Cloudy with Mist and Fog 74 23.6 72 22 91 91 WSW 3 6 29.68 1005 5 8 N/A
5:55 am 05:55 Mostly Cloudy with Mist and Fog 74 23.5 71 21.9 91 91 SW 5 7 29.68 1005 5 8 N/A
6:15 am 06:15 Partly Cloudy 72 22.3 69 20.5 90 90 WSW 9 15 29.68 1005 10 16 N/A
6:35 am 06:35 Partly Cloudy 72 22.3 69 20.5 90 90 SW 7 11 29.65 1004 10 16 N/A
6:55 am 06:55 Sunny 72 22.3 69 20.5 90 90 SSW 8 13 29.65 1004 10 16 N/A
7:15 am 07:15 Sunny 72 22.3 69 20.5 90 90 SSW 10 17 29.68 1005 10 16 N/A
7:35 am 07:35 Partly Cloudy 72 22.3 69 20.4 89 89 WSW 10 17 29.68 1005 10 16 N/A
7:55 am 07:55 Mostly Cloudy 73 22.8 69 20.7 88 88 SW 8 13 29.65 1004 10 16 N/A
8:15 am 08:15 Mostly Cloudy 74 23.6 71 21.5 88 88 SW 9 15 29.65 1004 10 16 N/A
8:35 am 08:35 Mostly Cloudy 74 23.6 71 21.5 88 88 SW 9 15 29.65 1004 10 16 N/A
8:55 am 08:55 Partly Cloudy 74 23.6 70 21.2 86 86 SW 8 13 29.65 1004 10 16 N/A
9:15 am 09:15 Sunny 77 25.1 72 22.3 85 85 WSW 9 15 29.62 1003 10 16 N/A
9:35 am 09:35 Partly Cloudy 77 25.1 72 22.1 83 83 WSW 9 15 29.62 1003 10 16 N/A
9:55 am 09:55 Partly Cloudy 80 26.5 74 23.1 82 82 WSW 12 19 29.62 1003 10 16 N/A
10:15 am 10:15 Partly Cloudy 80 26.5 73 22.7 80 80 W 13 20 29.62 1003 10 16 N/A
10:35 am 10:35 Partly Cloudy 81 27.3 74 23.5 80 80 W 15 24 29.62 1003 10 16 N/A
10:55 am 10:55 Sunny 82 28 74 23.4 76 76 WSW 14 22 29.62 1003 10 16 N/A
11:15 am 11:15 Sunny 83 28.2 74 23.5 76 76 W 13 20 29.62 1003 10 16 N/A
11:35 am 11:35 Sunny 83 28.6 74 23.5 74 74 WSW 12 19 29.62 1003 10 16 N/A
11:55 am 11:55 Sunny 87 30.4 77 25 73 73 WSW 12 19 29.62 1003 10 16 N/A
12:15 pm 12:15 Sunny 88 31.3 77 25 69 69 SW 13 20 29.59 1002 10 16 N/A
12:35 pm 12:35 Sunny 90 32.1 77 25.1 67 67 SW 12 19 29.59 1002 10 16 N/A
12:55 pm 12:55 Sunny 90 32.1 76 24.2 63 63 SW 14 22 29.59 1002 10 16 N/A
1:15 pm 13:15 Sunny 90 32.1 73 23 59 59 WSW 15 24 29.59 1002 10 16 N/A
1:35 pm 13:35 Sunny 90 32.1 73 22.6 57 57 W 21 33 29.59 1002 10 16 N/A
1:55 pm 13:55 Sunny 90 32.1 73 23 59 59 WSW 17 28 29.56 1001 10 16 N/A
2:15 pm 14:15 Partly Cloudy 90 32.1 73 22.6 57 57 WSW 22 35 29.56 1001 10 16 N/A
2:35 pm 14:35 Partly Cloudy 90 32.1 72 22 55 55 W 18 30 29.53 1000 10 16 N/A
2:55 pm 14:55 Mostly Cloudy 89 31.4 69 20.7 53 53 W 23 37 29.53 1000 10 16 N/A
3:15 pm 15:15 Cloudy with Light Rain 75 23.7 69 20.7 83 83 W 17 28 29.56 1001 2 2 N/A
3:35 pm 15:35 Partly Cloudy 78 25.3 72 22.3 84 84 W 9 15 29.59 1002 10 16 N/A
3:55 pm 15:55 Sunny 83 28.2 73 22.6 72 72 WNW 10 17 29.56 1001 10 16 N/A
4:15 pm 16:15 Partly Cloudy 86 30.1 73 22.5 64 64 WNW 15 24 29.56 1001 10 16 N/A
4:35 pm 16:35 Partly Cloudy 89 31.8 69 20.7 52 52 WNW 21 33 29.56 1001 10 16 N/A
4:55 pm 16:55 Mostly Cloudy with Light Rain 80 26.6 67 19.4 65 65 NNW 18 30 29.59 1002 7 11 N/A
5:15 pm 17:15 Cloudy with Light Rain 75 23.9 67 19.7 77 77 NW 14 22 29.62 1003 7 11 N/A
5:35 pm 17:35 Cloudy 77 25.1 69 20.5 76 76 NW 10 17 29.59 1002 10 16 N/A
5:55 pm 17:55 Partly Cloudy 80 26.9 69 20.6 68 68 NW 13 20 29.59 1002 10 16 N/A
6:15 pm 18:15 Partly Cloudy 81 27.4 67 19.7 63 63 NNW 18 30 29.59 1002 10 16 N/A
6:35 pm 18:35 Partly Cloudy 82 28 65 18.3 56 56 NNW 14 22 29.59 1002 10 16 N/A
6:55 pm 18:55 Sunny 82 28 65 18.1 55 55 NNW 14 22 29.59 1002 10 16 N/A
7:15 pm 19:15 Sunny 81 27.2 62 16.7 53 53 NNW 14 22 29.62 1003 10 16 N/A
7:35 pm 19:35 Partly Cloudy 80 26.5 62 16.9 56 56 NNW 15 24 29.62 1003 10 16 N/A
7:55 pm 19:55 Sunny 80 26.5 63 17.2 57 57 N 10 17 29.62 1003 10 16 N/A
8:15 pm 20:15 Sunny 78 25.8 62 16.7 57 57 NNW 10 17 29.62 1003 10 16 N/A
8:35 pm 20:35 Sunny 77 25.1 61 16.2 58 58 NNW 10 17 29.65 1004 10 16 N/A
8:55 pm 20:55 Sunny 77 25.1 62 16.6 59 59 NNW 10 17 29.65 1004 10 16 N/A
9:15 pm 21:15 Clear 76 24.5 62 16.6 62 62 NW 7 11 29.71 1006 10 16 N/A
9:35 pm 21:35 Clear 74 23.6 62 16.5 65 65 NW 6 9 29.71 1006 10 16 N/A
9:55 pm 21:55 Clear 74 23.6 64 17.6 69 69 NW 3 6 29.71 1006 10 16 N/A
10:15 pm 22:15 Clear 74 23.6 66 18.8 75 75 NNW 7 11 29.74 1007 10 16 N/A
10:35 pm 22:35 Clear 74 23.6 63 17.1 67 67 NNW 8 13 29.74 1007 10 16 N/A
10:55 pm 22:55 Clear 74 23.6 64 17.5 69 69 NNW 7 11 29.74 1007 10 16 N/A
11:15 pm 23:15 Clear 74 23.6 64 17.5 69 69 NNW 7 11 29.74 1007 10 16 N/A
11:35 pm 23:35 Clear 74 23.6 64 17.8 70 70 NNW 8 13 29.77 1008 10 16 N/A
11:55 pm 23:55 Partly Cloudy 74 23.6 64 18 71 71 NNW 6 9 29.77 1008 10 16 N/A

Powered by AerisWeather